Location: Oundoundou
(13.6667°N, 13.5500°W)
Time: 05:49:29
(UTC+00:00)

Daily predictions for brighter satellites

Satellite Brightness Start Highest point End
(mag) Time Altitude Azimuth Time Altitude Azimuth Time Altitude Azimuth
Centaur D-1A AC-31 3.3 03:44:47 84° SE 03:44:47 84° SE 04:36:54 10° ESE
Centaur D-1A AC-31 3.3 03:44:47 84° SE 03:44:47 84° SE 04:36:55 10° ESE
Centaur D-1A AC-31 3.3 03:44:46 84° SE 03:44:46 84° SE 04:36:55 10° ESE
Hubble Space Telescope 4.0 04:03:42 10° E 04:03:42 10° E 04:03:44 10° E
Palapa B4 Rocket 4.5 04:20:45 43° NNE 04:20:45 43° NNE 04:26:14 10° ENE
SWIFT 3.6 04:42:14 35° ESE 04:42:14 35° ESE 04:44:45 10° ESE
Cosmos 2150 Rocket 3.9 04:37:54 10° NNW 04:43:21 89° ENE 04:44:09 66° SSE
Cosmos 1238 Rocket 3.9 04:41:30 44° S 04:43:36 83° E 04:50:13 10° N
Meteor 1-31 Rocket 4.3 04:42:38 10° NE 04:46:05 32° E 04:46:59 29° SE
SJ 16-02 3.4 04:43:27 10° NNE 04:47:12 27° ENE 04:50:56 10° SE
GPS 2-15 Rocket1 4.5 04:51:23 28° SSE 04:51:23 28° SSE 04:53:57 10° SE
Cosmos 1953 3.8 04:46:23 10° N 04:48:30 30° N 04:48:30 30° N
Meteor 2-5 Rocket 3.8 04:48:08 34° S 04:50:37 74° E 04:56:08 10° N
BREEZE-M DEB (TANK) 4.2 04:48:02 10° NW 04:55:12 55° NE 04:58:07 10° ESE
Meteor PRIRODA 4.4 04:53:54 10° NNE 04:57:30 50° E 04:58:18 41° SE
Cosmos 2219 3.3 04:57:29 29° S 05:00:29 74° ESE 05:06:10 10° NNE
CENTAUR R/B 2.5 05:00:49 45° WNW 05:01:04 45° WNW 05:06:48 10° N
ARIANE 5 DEB (SYLDA) 4.1 05:01:06 25° S 05:01:18 25° S 05:05:11 10° SE
BREEZE-M TANK 3.5 05:02:47 33° SW 05:06:46 70° NW 05:10:26 10° NE
Cosmos 2360 Rocket 4.1 05:02:08 10° N 05:07:04 31° ENE 05:11:58 10° SE
BREEZE M DEB (TANK) 4.2 04:56:18 21° SW 05:08:46 84° NW 05:13:33 10° NE
Cosmos 1417 Rocket 4.4 05:06:13 24° SSW 05:09:57 66° W 05:16:03 10° N
SL-8 R/B 4.2 05:14:08 39° SW 05:14:08 39° SW 05:18:08 10° SSE
Palapa 6 Rocket 3.0 05:13:09 45° WNW 05:14:32 85° SSW 05:19:53 10° ESE
CZ-4B R/B 3.8 05:11:09 10° N 05:15:09 87° WNW 05:17:26 26° SSW
Atlas Centaur 2 3.2 05:11:01 29° SW 05:15:48 72° SSE 05:24:10 10° ENE
Meteor 1-24 Rocket 3.6 05:10:42 10° S 05:16:02 80° E 05:21:19 10° N
Cosmos 1825 Rocket 4.1 05:17:58 36° WNW 05:17:58 36° WNW 05:21:28 10° NNW
Cosmos 2227 Rocket 3.8 05:12:32 10° SSE 05:17:33 34° ESE 05:22:34 10° NE
Cosmos 2297 Rocket 4.0 05:15:21 10° SSE 05:20:16 31° ESE 05:25:11 10° NE
GPS 2-18 Rocket1 4.4 05:21:36 25° NW 05:22:45 30° N 05:26:05 10° ENE
ARIANE 5 R/B 2.9 05:23:32 13° SSE 05:23:34 13° SSE 05:25:02 10° SE
SL-16 R/B 2.3 05:18:14 10° NNW 05:23:43 52° WSW 05:29:11 10° S
CZ-3C R/B 2.3 05:23:18 22° NW 05:25:19 44° N 05:37:39 10° E
Cosmos 44 3.5 05:20:30 10° NNW 05:25:48 61° WSW 05:31:05 10° S
CZ-2C R/B 4.2 05:22:48 10° NE 05:26:44 28° E 05:30:39 10° SSE
S3M 3.9 05:21:21 10° SSW 05:27:25 61° W 05:33:26 10° N
Cosmos 1244 Rocket 4.4 05:21:44 10° N 05:27:50 71° W 05:34:02 10° S
Okean O Rocket 2.1 05:28:51 10° N 05:32:50 37° WNW 05:34:45 25° SW
Cosmos 2322 Rocket 2.6 05:33:23 10° NW 05:38:31 38° WSW 05:43:38 10° S
Cosmos 1745 Rocket 4.4 05:33:57 10° N 05:40:08 67° E 05:46:24 10° SSE
Celestis-02/Orion 38 4.5 05:35:44 10° NNE 05:40:50 78° WNW 05:45:53 10° SSW
Hubble Space Telescope 1.2 05:39:07 24° W 05:41:06 42° SSW 05:45:01 10° SE
Meteor 1-16 Rocket 4.0 05:36:50 10° N 05:42:18 78° W 05:47:39 10° S
Cosmos 773 Rocket 4.2 05:41:03 11° SSW 05:45:53 47° WNW 05:50:51 10° N
Aurora 2 Rocket 3.6 05:51:07 15° SW 05:52:09 17° SSW 05:54:40 10° SSE
MSX 4.3 05:46:49 10° NNE 05:52:30 65° ESE 05:58:09 10° S
Cosmos 1125 Rocket 3.7 05:51:28 10° NNW 05:56:33 50° W 06:01:35 10° S
Cosmos 44 Rocket 3.8 05:53:30 10° NW 05:58:22 41° WSW 06:03:11 10° S
IDEFIX/ARIANE 42P 2.7 05:56:40 10° N 06:01:47 56° WNW 06:06:54 10° SSW
CZ-4B R/B 4.2 05:58:50 10° NNW 06:03:14 26° WNW 06:07:36 10° SW
USA 161 2.3 06:01:37 10° SSW 06:04:20 31° W 06:07:04 10° NW
Feng Yun 1-1 Rocket 4.3 05:59:11 10° N 06:04:54 84° WNW 06:10:27 10° SSW
SL-24 DEB 4.2 06:00:24 10° S 06:05:01 76° W 06:09:42 10° N
DELTA-4 R/B 3.8 06:03:12 11° WSW 06:05:46 28° S 06:10:57 10° ESE
ARIANE 5 R/B 4.3 06:03:31 10° S 06:06:31 18° SE 06:13:50 10° ESE
Aureole 2 Rocket 3.4 06:04:16 10° NW 06:07:01 23° W 06:09:38 10° SSW
Cosmos 1315 Rocket 3.5 06:05:09 10° SSW 06:08:54 35° W 06:12:36 10° NNW
COSMOS 2455 3.7 06:04:35 10° S 06:10:24 53° ESE 06:16:14 10° NNE
Cosmos 1674 3.5 06:08:33 10° SSW 06:11:57 31° W 06:15:21 10° NNW
Maqsat-B 3.8 06:13:16 10° W 06:23:14 47° S 06:26:53 10° ESE
